Time,TemperatureF,DewpointF,PressureIn,WindDirection,WindDirectionDegrees,WindSpeedMPH,WindSpeedGustMPH,Humidity,HourlyPrecipIn,Conditions,Clouds,dailyrainin,SoftwareType,DateUTC
2013-02-28 00:08:00,41.8,42.0,30.05,North,1,2.0,-999.0,100,-99.99,,,0.00,weatherlink.com 1.10,2013-02-27 22:08:00,
2013-02-28 00:23:00,41.6,42.0,30.05,North,6,3.0,-999.0,100,-99.99,,,0.00,weatherlink.com 1.10,2013-02-27 22:23:00,
2013-02-28 00:38:00,41.6,42.0,30.05,North,349,5.0,-999.0,100,-99.99,,,0.00,weatherlink.com 1.10,2013-02-27 22:38:00,
2013-02-28 00:53:00,41.5,42.0,30.05,NE,54,1.0,-999.0,100,-99.99,,,0.00,weatherlink.com 1.10,2013-02-27 22:53:00,
2013-02-28 01:08:00,41.5,42.0,30.05,North,349,4.0,-999.0,100,-99.99,,,0.00,weatherlink.com 1.10,2013-02-27 23:08:00,
2013-02-28 01:23:00,41.6,42.0,30.05,North,0,1.0,-999.0,100,-99.99,,,0.00,weatherlink.com 1.10,2013-02-27 23:23:00,
2013-02-28 01:38:00,41.5,42.0,30.06,North,357,5.0,-999.0,100,-99.99,,,0.00,weatherlink.com 1.10,2013-02-27 23:38:00,
2013-02-28 01:53:00,41.5,42.0,30.06,NW,309,1.0,-999.0,100,-99.99,,,0.00,weatherlink.com 1.10,2013-02-27 23:53:00,
2013-02-28 02:08:00,41.3,41.0,30.06,North,1,6.0,-999.0,100,-99.99,,,0.00,weatherlink.com 1.10,2013-02-28 00:08:00,
2013-02-28 02:23:00,41.2,41.0,30.06,NNE,24,0.0,-999.0,100,-99.99,,,0.00,weatherlink.com 1.10,2013-02-28 00:23:00,
2013-02-28 02:38:00,41.2,41.0,30.06,North,357,5.0,-999.0,100,-99.99,,,0.00,weatherlink.com 1.10,2013-02-28 00:38:00,
2013-02-28 02:53:00,41.2,41.0,30.06,North,0,3.0,-999.0,100,-99.99,,,0.00,weatherlink.com 1.10,2013-02-28 00:53:00,
2013-02-28 03:08:00,41.3,41.0,30.06,North,349,5.0,-999.0,100,-99.99,,,0.00,weatherlink.com 1.10,2013-02-28 01:08:00,
2013-02-28 03:23:00,41.5,42.0,30.06,North,1,4.0,-999.0,100,-99.99,,,0.01,weatherlink.com 1.10,2013-02-28 01:23:00,
2013-02-28 03:38:00,41.3,41.0,30.06,North,349,2.0,-999.0,100,-99.99,,,0.02,weatherlink.com 1.10,2013-02-28 01:38:00,
2013-02-28 03:53:00,41.2,41.0,30.06,North,353,8.0,-999.0,100,-99.99,,,0.02,weatherlink.com 1.10,2013-02-28 01:53:00,
2013-02-28 04:08:00,41.1,41.0,30.06,North,353,6.0,-999.0,100,-99.99,,,0.02,weatherlink.com 1.10,2013-02-28 02:08:00,
2013-02-28 04:23:00,41.1,41.0,30.06,WNW,284,3.0,-999.0,100,-99.99,,,0.02,weatherlink.com 1.10,2013-02-28 02:23:00,
2013-02-28 04:38:00,41.2,41.0,30.06,North,0,3.0,-999.0,100,-99.99,,,0.02,weatherlink.com 1.10,2013-02-28 02:38:00,
2013-02-28 04:53:00,41.2,41.0,30.07,WNW,296,6.0,-999.0,100,-99.99,,,0.02,weatherlink.com 1.10,2013-02-28 02:53:00,
2013-02-28 05:08:00,41.2,41.0,30.07,NNE,25,1.0,-999.0,100,-99.99,,,0.02,weatherlink.com 1.10,2013-02-28 03:08:00,
2013-02-28 05:23:00,41.2,41.0,30.07,NNW,344,4.0,-999.0,100,-99.99,,,0.03,weatherlink.com 1.10,2013-02-28 03:23:00,
2013-02-28 05:38:00,41.2,41.0,30.07,West,265,9.0,-999.0,100,-99.99,,,0.03,weatherlink.com 1.10,2013-02-28 03:38:00,
2013-02-28 05:53:00,41.1,41.0,30.07,NNW,332,1.0,-999.0,100,-99.99,,,0.04,weatherlink.com 1.10,2013-02-28 03:53:00,
2013-02-28 06:09:00,40.9,41.0,30.07,SW,227,0.0,-999.0,100,-99.99,,,0.04,weatherlink.com 1.10,2013-02-28 04:09:00,
2013-02-28 06:24:00,41.1,41.0,30.07,North,359,0.0,-999.0,100,-99.99,,,0.04,weatherlink.com 1.10,2013-02-28 04:24:00,
2013-02-28 06:38:00,41.2,41.0,30.07,NE,41,6.0,-999.0,100,-99.99,,,0.04,weatherlink.com 1.10,2013-02-28 04:38:00,
2013-02-28 06:53:00,41.3,41.0,30.08,North,8,5.0,-999.0,100,-99.99,,,0.04,weatherlink.com 1.10,2013-02-28 04:53:00,
2013-02-28 07:08:00,41.2,41.0,30.08,NNE,27,7.0,-999.0,100,-99.99,,,0.04,weatherlink.com 1.10,2013-02-28 05:08:00,
2013-02-28 07:23:00,40.5,41.0,30.10,NNE,20,5.0,-999.0,100,-99.99,,,0.05,weatherlink.com 1.10,2013-02-28 05:23:00,
2013-02-28 07:38:00,40.2,40.0,30.11,North,352,8.0,-999.0,100,-99.99,,,0.06,weatherlink.com 1.10,2013-02-28 05:38:00,
2013-02-28 07:53:00,39.8,40.0,30.11,North,11,7.0,-999.0,100,-99.99,,,0.06,weatherlink.com 1.10,2013-02-28 05:53:00,
2013-02-28 08:08:00,39.8,40.0,30.12,NNE,23,5.0,-999.0,100,-99.99,,,0.07,weatherlink.com 1.10,2013-02-28 06:08:00,
2013-02-28 08:24:00,39.6,40.0,30.13,NNE,24,8.0,-999.0,100,-99.99,,,0.07,weatherlink.com 1.10,2013-02-28 06:24:00,
2013-02-28 08:39:00,39.6,40.0,30.14,NNE,13,4.0,-999.0,100,-99.99,,,0.08,weatherlink.com 1.10,2013-02-28 06:39:00,
2013-02-28 08:54:00,39.8,40.0,30.14,NNE,16,3.0,-999.0,100,-99.99,,,0.08,weatherlink.com 1.10,2013-02-28 06:54:00,
2013-02-28 09:09:00,40.1,40.0,30.14,NW,322,5.0,-999.0,100,-99.99,,,0.08,weatherlink.com 1.10,2013-02-28 07:09:00,
2013-02-28 09:24:00,40.2,40.0,30.14,NNE,21,12.0,-999.0,100,-99.99,,,0.08,weatherlink.com 1.10,2013-02-28 07:24:00,
2013-02-28 09:39:00,40.3,40.0,30.14,NNE,25,13.0,-999.0,100,-99.99,,,0.08,weatherlink.com 1.10,2013-02-28 07:39:00,
2013-02-28 09:54:00,40.8,41.0,30.15,NNE,20,12.0,-999.0,100,-99.99,,,0.08,weatherlink.com 1.10,2013-02-28 07:54:00,
2013-02-28 10:09:00,41.6,42.0,30.15,North,6,14.0,-999.0,100,-99.99,,,0.08,weatherlink.com 1.10,2013-02-28 08:09:00,
2013-02-28 10:24:00,41.9,42.0,30.15,NE,34,5.0,-999.0,100,-99.99,,,0.08,weatherlink.com 1.10,2013-02-28 08:24:00,
2013-02-28 10:39:00,42.2,42.0,30.15,North,357,5.0,-999.0,100,-99.99,,,0.08,weatherlink.com 1.10,2013-02-28 08:39:00,
2013-02-28 10:54:00,42.2,42.0,30.16,NW,318,3.0,-999.0,100,-99.99,,,0.08,weatherlink.com 1.10,2013-02-28 08:54:00,
2013-02-28 11:09:00,42.2,42.0,30.16,North,353,7.0,-999.0,100,-99.99,,,0.08,weatherlink.com 1.10,2013-02-28 09:09:00,
2013-02-28 11:24:00,41.6,42.0,30.16,WNW,292,5.0,-999.0,100,-99.99,,,0.08,weatherlink.com 1.10,2013-02-28 09:24:00,
2013-02-28 11:39:00,41.3,41.0,30.16,North,353,11.0,-999.0,100,-99.99,,,0.08,weatherlink.com 1.10,2013-02-28 09:39:00,
2013-02-28 11:55:00,41.2,41.0,30.15,NW,309,0.0,-999.0,100,-99.99,,,0.09,weatherlink.com 1.10,2013-02-28 09:55:00,
2013-02-28 12:10:00,41.2,41.0,30.15,North,353,5.0,-999.0,100,-99.99,,,0.09,weatherlink.com 1.10,2013-02-28 10:10:00,
2013-02-28 12:25:00,41.3,41.0,30.15,North,357,2.0,-999.0,100,-99.99,,,0.09,weatherlink.com 1.10,2013-02-28 10:25:00,
2013-02-28 12:40:00,41.8,42.0,30.15,NNE,25,6.0,-999.0,100,-99.99,,,0.09,weatherlink.com 1.10,2013-02-28 10:40:00,
2013-02-28 12:55:00,42.2,42.0,30.14,NNE,21,13.0,-999.0,100,-99.99,,,0.09,weatherlink.com 1.10,2013-02-28 10:55:00,
2013-02-28 13:10:00,42.6,43.0,30.14,NE,34,5.0,-999.0,100,-99.99,,,0.09,weatherlink.com 1.10,2013-02-28 11:10:00,
2013-02-28 13:25:00,42.6,43.0,30.14,NNE,17,7.0,-999.0,100,-99.99,,,0.09,weatherlink.com 1.10,2013-02-28 11:25:00,
2013-02-28 13:40:00,42.3,42.0,30.14,North,11,16.0,-999.0,100,-99.99,,,0.09,weatherlink.com 1.10,2013-02-28 11:40:00,
2013-02-28 13:55:00,42.1,42.0,30.14,NE,34,10.0,-999.0,100,-99.99,,,0.09,weatherlink.com 1.10,2013-02-28 11:55:00,
2013-02-28 14:10:00,41.3,41.0,30.15,NE,34,12.0,-999.0,100,-99.99,,,0.09,weatherlink.com 1.10,2013-02-28 12:10:00,
2013-02-28 14:25:00,41.2,41.0,30.16,NNE,21,9.0,-999.0,100,-99.99,,,0.09,weatherlink.com 1.10,2013-02-28 12:25:00,
2013-02-28 14:40:00,41.1,41.0,30.16,NNE,20,12.0,-999.0,100,-99.99,,,0.09,weatherlink.com 1.10,2013-02-28 12:40:00,
2013-02-28 14:55:00,41.2,41.0,30.16,NNE,24,10.0,-999.0,100,-99.99,,,0.09,weatherlink.com 1.10,2013-02-28 12:55:00,
2013-02-28 15:10:00,41.1,41.0,30.16,NE,52,5.0,-999.0,100,-99.99,,,0.09,weatherlink.com 1.10,2013-02-28 13:10:00,
2013-02-28 15:26:00,40.9,41.0,30.16,NNE,28,13.0,-999.0,100,-99.99,,,0.09,weatherlink.com 1.10,2013-02-28 13:26:00,
2013-02-28 15:41:00,40.8,41.0,30.17,NNE,23,4.0,-999.0,100,-99.99,,,0.09,weatherlink.com 1.10,2013-02-28 13:41:00,
2013-02-28 15:56:00,40.6,41.0,30.17,NE,34,10.0,-999.0,100,-99.99,,,0.09,weatherlink.com 1.10,2013-02-28 13:56:00,
2013-02-28 16:11:00,40.5,41.0,30.17,NE,37,7.0,-999.0,100,-99.99,,,0.09,weatherlink.com 1.10,2013-02-28 14:11:00,
2013-02-28 16:26:00,40.2,40.0,30.18,North,8,13.0,-999.0,100,-99.99,,,0.09,weatherlink.com 1.10,2013-02-28 14:26:00,
2013-02-28 16:41:00,40.1,40.0,30.18,NNE,30,6.0,-999.0,100,-99.99,,,0.09,weatherlink.com 1.10,2013-02-28 14:41:00,
2013-02-28 16:56:00,40.2,40.0,30.18,NE,35,6.0,-999.0,100,-99.99,,,0.09,weatherlink.com 1.10,2013-02-28 14:56:00,
2013-02-28 17:11:00,40.5,41.0,30.18,NNE,32,7.0,-999.0,100,-99.99,,,0.09,weatherlink.com 1.10,2013-02-28 15:11:00,
2013-02-28 17:26:00,40.9,41.0,30.18,NNE,25,12.0,-999.0,100,-99.99,,,0.09,weatherlink.com 1.10,2013-02-28 15:26:00,
2013-02-28 17:41:00,41.1,41.0,30.18,North,0,6.0,-999.0,100,-99.99,,,0.09,weatherlink.com 1.10,2013-02-28 15:41:00,
2013-02-28 17:56:00,40.6,41.0,30.19,North,359,11.0,-999.0,100,-99.99,,,0.10,weatherlink.com 1.10,2013-02-28 15:56:00,
2013-02-28 18:11:00,40.5,41.0,30.19,NNE,30,8.0,-999.0,100,-99.99,,,0.10,weatherlink.com 1.10,2013-02-28 16:11:00,
2013-02-28 18:26:00,40.3,40.0,30.20,NE,37,4.0,-999.0,100,-99.99,,,0.10,weatherlink.com 1.10,2013-02-28 16:26:00,
2013-02-28 18:41:00,40.2,40.0,30.20,North,1,6.0,-999.0,100,-99.99,,,0.10,weatherlink.com 1.10,2013-02-28 16:41:00,
2013-02-28 18:57:00,40.2,40.0,30.20,NE,34,5.0,-999.0,100,-99.99,,,0.10,weatherlink.com 1.10,2013-02-28 16:57:00,
2013-02-28 19:12:00,40.1,40.0,30.20,North,8,5.0,-999.0,100,-99.99,,,0.10,weatherlink.com 1.10,2013-02-28 17:12:00,
2013-02-28 19:27:00,39.9,40.0,30.20,NNE,13,5.0,-999.0,100,-99.99,,,0.10,weatherlink.com 1.10,2013-02-28 17:27:00,
2013-02-28 19:42:00,40.1,40.0,30.20,NNE,13,12.0,-999.0,100,-99.99,,,0.10,weatherlink.com 1.10,2013-02-28 17:42:00,
2013-02-28 19:57:00,39.8,40.0,30.20,NNE,13,7.0,-999.0,100,-99.99,,,0.10,weatherlink.com 1.10,2013-02-28 17:57:00,
2013-02-28 20:12:00,39.6,40.0,30.20,NNE,20,8.0,-999.0,100,-99.99,,,0.10,weatherlink.com 1.10,2013-02-28 18:12:00,
2013-02-28 20:27:00,39.5,40.0,30.20,NNE,25,5.0,-999.0,100,-99.99,,,0.10,weatherlink.com 1.10,2013-02-28 18:27:00,
2013-02-28 20:42:00,39.3,39.0,30.20,NNE,17,3.0,-999.0,100,-99.99,,,0.10,weatherlink.com 1.10,2013-02-28 18:42:00,
2013-02-28 20:57:00,39.1,39.0,30.21,North,350,1.0,-999.0,100,-99.99,,,0.10,weatherlink.com 1.10,2013-02-28 18:57:00,
2013-02-28 21:12:00,38.9,39.0,30.21,North,349,3.0,-999.0,100,-99.99,,,0.10,weatherlink.com 1.10,2013-02-28 19:12:00,
2013-02-28 21:27:00,38.9,39.0,30.21,North,0,0.0,-999.0,100,-99.99,,,0.10,weatherlink.com 1.10,2013-02-28 19:27:00,
2013-02-28 21:42:00,38.6,39.0,30.21,NNW,328,0.0,-999.0,100,-99.99,,,0.10,weatherlink.com 1.10,2013-02-28 19:42:00,
2013-02-28 21:57:00,38.3,38.0,30.22,NW,322,0.0,-999.0,100,-99.99,,,0.10,weatherlink.com 1.10,2013-02-28 19:57:00,
2013-02-28 22:13:00,38.2,38.0,30.21,NNW,337,0.0,-999.0,100,-99.99,,,0.10,weatherlink.com 1.10,2013-02-28 20:13:00,
2013-02-28 22:28:00,38.0,38.0,30.21,WNW,301,0.0,-999.0,100,-99.99,,,0.10,weatherlink.com 1.10,2013-02-28 20:28:00,
2013-02-28 22:43:00,37.8,38.0,30.21,NE,34,0.0,-999.0,100,-99.99,,,0.10,weatherlink.com 1.10,2013-02-28 20:43:00,
2013-02-28 22:58:00,37.8,38.0,30.21,NNE,17,4.0,-999.0,100,-99.99,,,0.10,weatherlink.com 1.10,2013-02-28 20:58:00,
2013-02-28 23:13:00,37.9,38.0,30.21,WNW,302,2.0,-999.0,100,-99.99,,,0.10,weatherlink.com 1.10,2013-02-28 21:13:00,
2013-02-28 23:28:00,37.8,38.0,30.20,North,0,1.0,-999.0,100,-99.99,,,0.10,weatherlink.com 1.10,2013-02-28 21:28:00,
2013-02-28 23:43:00,37.9,38.0,30.20,North,11,0.0,-999.0,100,-99.99,,,0.10,weatherlink.com 1.10,2013-02-28 21:43:00,
2013-02-28 23:58:00,37.9,38.0,30.20,North,11,0.0,-999.0,100,-99.99,,,0.00,weatherlink.com 1.10,2013-02-28 21:58:00,